| time (UTC) | temp F | wind direction | speed knots | gust knots | rain 1hr in | rain 24hr in | rain mn in | humidity % | barometer mb |
| 20260504173016 | 79 | 127 | 3.5 | 7.0 | 0.00 | 0.00 | 0.00 | 34 | 1016.8 |
| 20260504172017 | 80 | 134 | 5.2 | 9.6 | 0.00 | 0.00 | 0.00 | 32 | 1016.9 |
| 20260504171017 | 79 | 76 | 3.5 | 7.8 | 0.00 | 0.00 | 0.00 | 34 | 1016.9 |
| 20260504151016 | 75 | 123 | 4.3 | 10.4 | 0.00 | 0.00 | 0.00 | 42 | 1018.1 |
| 20260504141017 | 73 | 98 | 7.0 | 11.3 | 0.00 | 0.00 | 0.00 | 46 | 1018.2 |
| 20260504081037 | 55 | 34 | 0.9 | 1.7 | 0.00 | 0.00 | 0.00 | 89 | 1017.0 |
| 20260504050017 | 61 | 74 | 0.9 | 1.7 | 0.00 | 0.00 | 0.00 | 74 | 1018.2 |
| 20260504045017 | 61 | 77 | 0.9 | 2.6 | 0.00 | 0.00 | 0.00 | 73 | 1018.3 |
| 20260504044037 | 61 | 66 | 0.9 | 3.5 | 0.00 | 0.00 | 0.00 | 73 | 1018.4 |
| 20260504043037 | 61 | 73 | 0.9 | 2.6 | 0.00 | 0.00 | 0.00 | 72 | 1018.5 |
| 20260504042038 | 62 | 66 | 0.9 | 2.6 | 0.00 | 0.00 | 0.00 | 71 | 1018.5 |
| 20260504041017 | 62 | 46 | 0.9 | 4.3 | 0.00 | 0.00 | 0.00 | 71 | 1018.5 |
| 20260504040017 | 62 | 340 | 0.9 | 2.6 | 0.00 | 0.00 | 0.00 | 70 | 1018.4 |
| 20260504035016 | 62 | 26 | 0.9 | 1.7 | 0.00 | 0.00 | 0.00 | 69 | 1018.4 |
| 20260504034016 | 63 | 84 | 0.9 | 1.7 | 0.00 | 0.00 | 0.00 | 69 | 1018.4 |
| 20260504033016 | 63 | 78 | 0.9 | 1.7 | 0.00 | 0.00 | 0.00 | 67 | 1018.4 |
| 20260504032036 | 63 | 43 | 0.9 | 4.3 | 0.00 | 0.00 | 0.00 | 68 | 1018.3 |
| 20260504031017 | 63 | 65 | 0.9 | 1.7 | 0.00 | 0.00 | 0.00 | 66 | 1018.0 |
| 20260504030016 | 64 | 308 | 0.9 | 1.7 | 0.00 | 0.00 | 0.00 | 63 | 1018.0 |
| 20260504025017 | 64 | 10 | 0.9 | 1.7 | 0.00 | 0.00 | 0.00 | 61 | 1018.0 |
| 20260504024037 | 64 | 337 | 0.9 | 3.5 | 0.00 | 0.00 | 0.00 | 61 | 1017.9 |
| 20260504023017 | 65 | 24 | 0.0 | 0.9 | 0.00 | 0.00 | 0.00 | 58 | 1017.7 |
| 20260504022023 | 66 | 71 | 0.9 | 0.9 | 0.00 | 0.00 | 0.00 | 56 | 1017.6 |
| 20260504021037 | 67 | 66 | 0.9 | 1.7 | 0.00 | 0.00 | 0.00 | 53 | 1017.7 |
| 20260504020018 | 67 | 37 | 1.7 | 2.6 | 0.00 | 0.00 | 0.00 | 51 | 1017.5 |
| 20260504015018 | 66 | 25 | 1.7 | 3.5 | 0.00 | 0.00 | 0.00 | 52 | 1017.3 |
| 20260504014018 | 65 | 23 | 0.9 | 2.6 | 0.00 | 0.00 | 0.00 | 57 | 1017.2 |
| 20260504013018 | 67 | 84 | 1.7 | 4.3 | 0.00 | 0.00 | 0.00 | 54 | 1016.9 |
| 20260504012016 | 67 | 307 | 0.9 | 1.7 | 0.00 | 0.00 | 0.00 | 49 | 1016.7 |
| 20260504011016 | 68 | 301 | 0.9 | 1.7 | 0.00 | 0.00 | 0.00 | 50 | 1016.5 |
| 20260504010016 | 69 | 336 | 0.9 | 2.6 | 0.00 | 0.00 | 0.00 | 47 | 1016.2 |
| 20260504005016 | 69 | 342 | 0.9 | 1.7 | 0.00 | 0.00 | 0.00 | 48 | 1016.1 |
| 20260504004016 | 69 | 1 | 0.0 | 1.7 | 0.00 | 0.00 | 0.00 | 48 | 1016.1 |
| 20260504003016 | 70 | 320 | 0.0 | 2.6 | 0.00 | 0.00 | 0.00 | 47 | 1016.0 |
| 20260504002016 | 71 | 300 | 0.9 | 1.7 | 0.00 | 0.00 | 0.00 | 44 | 1015.9 |
| 20260504001056 | 72 | 340 | 0.9 | 1.7 | 0.00 | 0.00 | 0.00 | 43 | 1015.8 |
| 20260504000016 | 73 | 317 | 0.9 | 2.6 | 0.00 | 0.00 | 0.00 | 41 | 1015.8 |
| 20260503235016 | 73 | 337 | 0.9 | 2.6 | 0.00 | 0.00 | 0.00 | 39 | 1015.8 |
| 20260503234017 | 74 | 13 | 1.7 | 5.2 | 0.00 | 0.00 | 0.00 | 38 | 1015.7 |
| 20260503233017 | 75 | 2 | 2.6 | 5.2 | 0.00 | 0.00 | 0.00 | 37 | 1015.8 |
| 20260503232017 | 76 | 4 | 3.5 | 6.1 | 0.00 | 0.00 | 0.00 | 35 | 1015.9 |
| 20260503231017 | 77 | 8 | 2.6 | 6.1 | 0.00 | 0.00 | 0.00 | 35 | 1015.9 |
| 20260503230018 | 77 | 15 | 2.6 | 4.3 | 0.00 | 0.00 | 0.00 | 34 | 1015.9 |
| 20260503225018 | 78 | 351 | 2.6 | 7.0 | 0.00 | 0.00 | 0.00 | 34 | 1015.7 |
| 20260503224018 | 78 | 24 | 1.7 | 3.5 | 0.00 | 0.00 | 0.00 | 33 | 1015.7 |
| 20260503223038 | 79 | 22 | 3.5 | 5.2 | 0.00 | 0.00 | 0.00 | 32 | 1015.6 |
| 20260503222019 | 80 | 326 | 1.7 | 4.3 | 0.00 | 0.00 | 0.00 | 30 | 1015.7 |
| 20260503221018 | 79 | 349 | 1.7 | 6.1 | 0.00 | 0.00 | 0.00 | 31 | 1015.7 |
| 20260503220018 | 79 | 357 | 1.7 | 4.3 | 0.00 | 0.00 | 0.00 | 31 | 1015.9 |
| 20260503215016 | 79 | 9 | 3.5 | 5.2 | 0.00 | 0.00 | 0.00 | 32 | 1016.0 |
| 20260503214016 | 79 | 36 | 4.3 | 7.0 | 0.00 | 0.00 | 0.00 | 33 | 1015.9 |
| 20260503213016 | 80 | 42 | 2.6 | 7.0 | 0.00 | 0.00 | 0.00 | 30 | 1015.9 |
| 20260503212016 | 79 | 68 | 3.5 | 6.1 | 0.00 | 0.00 | 0.00 | 31 | 1015.9 |
| 20260503211017 | 79 | 43 | 4.3 | 9.6 | 0.00 | 0.00 | 0.00 | 32 | 1016.0 |
| 20260503210018 | 79 | 31 | 4.3 | 7.0 | 0.00 | 0.00 | 0.00 | 31 | 1016.0 |
| 20260503205037 | 78 | 9 | 2.6 | 5.2 | 0.00 | 0.00 | 0.00 | 31 | 1016.1 |
| 20260503204017 | 79 | 42 | 5.2 | 7.8 | 0.00 | 0.00 | 0.00 | 32 | 1016.1 |
| 20260503203017 | 78 | 60 | 3.5 | 7.8 | 0.00 | 0.00 | 0.00 | 33 | 1016.1 |
| 20260503202017 | 78 | 76 | 3.5 | 7.8 | 0.00 | 0.00 | 0.00 | 33 | 1016.3 |
| 20260503201017 | 78 | 79 | 4.3 | 7.8 | 0.00 | 0.00 | 0.00 | 33 | 1016.5 |
| 20260503200018 | 78 | 55 | 5.2 | 10.4 | 0.00 | 0.00 | 0.00 | 33 | 1016.6 |
| 20260503195018 | 78 | 74 | 6.1 | 8.7 | 0.00 | 0.00 | 0.00 | 34 | 1016.6 |
| 20260503194018 | 78 | 56 | 0.9 | 4.3 | 0.00 | 0.00 | 0.00 | 32 | 1016.9 |
| 20260503193038 | 77 | 19 | 4.3 | 7.8 | 0.00 | 0.00 | 0.00 | 33 | 1017.0 |
| 20260503192019 | 77 | 50 | 4.3 | 9.6 | 0.00 | 0.00 | 0.00 | 33 | 1017.1 |
| 20260503191018 | 77 | 72 | 5.2 | 7.8 | 0.00 | 0.00 | 0.00 | 34 | 1017.3 |
| 20260503190016 | 77 | 35 | 6.1 | 9.6 | 0.00 | 0.00 | 0.00 | 35 | 1017.4 |
| 20260503185016 | 76 | 45 | 6.1 | 12.2 | 0.00 | 0.00 | 0.00 | 35 | 1017.7 |
| 20260503184036 | 76 | 116 | 6.1 | 8.7 | 0.00 | 0.00 | 0.00 | 35 | 1017.8 |
| 20260503183016 | 76 | 57 | 5.2 | 10.4 | 0.00 | 0.00 | 0.00 | 37 | 1017.9 |
| 20260503182018 | 76 | 65 | 3.5 | 6.1 | 0.00 | 0.00 | 0.00 | 35 | 1018.0 |
| 20260503181016 | 75 | 43 | 4.3 | 8.7 | 0.00 | 0.00 | 0.00 | 37 | 1018.1 |
| 20260503180016 | 75 | 47 | 5.2 | 9.6 | 0.00 | 0.00 | 0.00 | 41 | 1018.2 |
| 20260503175037 | 75 | 46 | 5.2 | 7.8 | 0.00 | 0.00 | 0.00 | 40 | 1018.3 |
| 20260503174017 | 74 | 51 | 4.3 | 7.8 | 0.00 | 0.00 | 0.00 | 41 | 1018.4 |